Weather History for Mineola, TX

Change the Weather History Date:

Monday, November 19, 2012

  Actual Average (KTYR) Record (KTYR)
Temperature  
Mean Temperature 60 °F 54 °F  
Max Temperature 71 °F 64 °F 83 °F (1925)
Min Temperature 48 °F 45 °F 21 °F (1903)
Degree Days  
Heating Degree Days 6 11  
Month to date heating degree days 153  
Since 1 July heating degree days 230  
Cooling Degree Days 0 0  
Month to date cooling degree days 14  
Year to date cooling degree days 2407  
Growing Degree Days 10 (Base 50)    
Moisture  
Dew Point 44 °F    
Average Humidity 56    
Maximum Humidity 82    
Minimum Humidity 37    
Precipitation  
Precipitation 0.00 in 0.13 in 1.63 in (1953)
Month to date precipitation 2.73  
Year to date precipitation 40.18  
Snow  
Snow 0.00 in - - ()
Month to date snowfall  
Since 1 July snowfall  
Since 1 September snowfall  
Snow Depth -    
Sea Level Pressure  
Sea Level Pressure 30.22 in    
Wind  
Wind Speed 3 mph (SSE)    
Max Wind Speed 10 mph    
Max Gust Speed -    
Visibility 10 miles    
Events Rain    
T = Trace of Precipitation, MM = Missing Value Source: NWS Daily Summary

Daily Weather History Graph

Daily Weather History Graph

Search for Another Location

Airport:

Trip Planner

Search our weather history database for the weather conditions in past years. The results will help you decide how hot, cold, wet, or windy it might be!

Date:

Astronomy

Nov. 19, 2012 Rise Set
Actual Time 6:56 AM CST 5:18 PM CST
Civil Twilight 6:29 AM CST 5:44 PM CST
Nautical Twilight 5:59 AM CST 6:14 PM CST
Astronomical Twilight 5:30 AM CST 6:44 PM CST
Moon 12:06 PM CST (11/19) 11:37 PM CST (11/19)
Length of Visible Light 11h 15m
Length of Day
10h 22m
Waxing Crescent, 41% of the Moon is Illuminated
Nov 19
Waxing Crescent
Nov 20
First Quarter
Nov 28
Full
Dec 6
Last Quarter
Dec 13
New

Hourly Weather History & Observations

Time (CST) Temp. Dew Point Humidity Pressure Visibility Wind Dir Wind Speed Gust Speed Precip Events Conditions
12:15 AM 55.4 °F 37.4 °F 51% 30.26 in 10.0 mi Calm Calm - N/A   Clear
12:35 AM 55.4 °F 37.4 °F 51% 30.25 in 10.0 mi SE 4.6 mph - N/A   Clear
12:55 AM 55.4 °F 39.2 °F 54% 30.25 in 10.0 mi Calm Calm - N/A   Clear
1:15 AM 55.4 °F 39.2 °F 54% 30.25 in 10.0 mi SE 5.8 mph - N/A   Clear
1:35 AM 55.4 °F 39.2 °F 54% 30.25 in 10.0 mi SE 4.6 mph - N/A   Clear
1:55 AM 55.4 °F 39.2 °F 54% 30.25 in 10.0 mi SE 3.5 mph - N/A   Clear
2:15 AM 55.4 °F 39.2 °F 54% 30.25 in 10.0 mi SE 3.5 mph - N/A   Clear
2:35 AM 55.4 °F 39.2 °F 54% 30.26 in 10.0 mi Calm Calm - N/A   Clear
2:55 AM 55.4 °F 39.2 °F 54% 30.26 in 10.0 mi Calm Calm - N/A   Clear
3:15 AM 53.6 °F 39.2 °F 58% 30.26 in 10.0 mi Calm Calm - N/A   Clear
3:35 AM 53.6 °F 41.0 °F 62% 30.26 in 10.0 mi Calm Calm - N/A   Clear
3:55 AM 51.8 °F 42.8 °F 71% 30.25 in 10.0 mi Calm Calm - N/A   Clear
4:15 AM 51.8 °F 42.8 °F 71% 30.24 in 10.0 mi Calm Calm - N/A   Clear
4:35 AM 50.0 °F 42.8 °F 76% 30.25 in 10.0 mi Calm Calm - N/A   Clear
4:55 AM 48.2 °F 42.8 °F 82% 30.25 in 10.0 mi SE 3.5 mph - N/A   Clear
5:15 AM 51.8 °F 41.0 °F 67% 30.25 in 10.0 mi Calm Calm - N/A   Mostly Cloudy
5:35 AM 51.8 °F 42.8 °F 71% 30.24 in 10.0 mi Calm Calm - N/A   Overcast
5:55 AM 51.8 °F 42.8 °F 71% 30.24 in 10.0 mi Calm Calm - N/A   Mostly Cloudy
6:15 AM 48.2 °F 42.8 °F 82% 30.25 in 10.0 mi Calm Calm - N/A   Partly Cloudy
6:35 AM 48.2 °F 42.8 °F 82% 30.25 in 10.0 mi Calm Calm - N/A   Light Drizzle
6:55 AM 48.2 °F 42.8 °F 82% 30.25 in 10.0 mi Calm Calm - N/A   Mostly Cloudy
7:35 AM 51.8 °F 42.8 °F 71% 30.26 in 10.0 mi SSE 3.5 mph - N/A   Mostly Cloudy
7:55 AM 53.6 °F 42.8 °F 67% 30.27 in 9.0 mi SSE 3.5 mph - N/A   Scattered Clouds
8:15 AM 55.4 °F 42.8 °F 63% 30.27 in 8.0 mi South 3.5 mph - N/A   Overcast
8:35 AM 55.4 °F 42.8 °F 63% 30.28 in 8.0 mi Calm Calm - N/A   Overcast
8:55 AM 57.2 °F 42.8 °F 59% 30.28 in 8.0 mi Calm Calm - N/A   Overcast
9:15 AM 57.2 °F 42.8 °F 59% 30.28 in 9.0 mi South 4.6 mph - N/A   Mostly Cloudy
9:35 AM 60.8 °F 42.8 °F 52% 30.28 in 9.0 mi South 5.8 mph - N/A   Mostly Cloudy
9:55 AM 62.6 °F 42.8 °F 48% 30.29 in 10.0 mi South 6.9 mph - N/A   Mostly Cloudy
10:15 AM 62.6 °F 41.0 °F 45% 30.28 in 9.0 mi South 8.1 mph - N/A   Mostly Cloudy
10:35 AM 64.4 °F 39.2 °F 40% 30.27 in 10.0 mi South 6.9 mph - N/A   Mostly Cloudy
10:55 AM 64.4 °F 39.2 °F 40% 30.26 in 10.0 mi South 8.1 mph - N/A   Mostly Cloudy
11:15 AM 66.2 °F 42.8 °F 43% 30.25 in 10.0 mi South 4.6 mph - N/A   Mostly Cloudy
11:35 AM 68.0 °F 41.0 °F 37% 30.25 in 10.0 mi SSW 8.1 mph - N/A   Scattered Clouds
11:55 AM 69.8 °F 42.8 °F 38% 30.23 in 10.0 mi SSW 10.4 mph - N/A   Scattered Clouds
12:15 PM 69.8 °F 42.8 °F 38% 30.22 in 10.0 mi SSW 8.1 mph - N/A   Mostly Cloudy
12:35 PM 71.6 °F 44.6 °F 38% 30.21 in 9.0 mi South 5.8 mph - N/A   Mostly Cloudy
12:55 PM 71.6 °F 46.4 °F 41% 30.21 in 10.0 mi South 4.6 mph - N/A   Light Drizzle
1:15 PM 71.6 °F 46.4 °F 41% 30.20 in 10.0 mi WSW 6.9 mph - N/A   Mostly Cloudy
1:35 PM 71.6 °F 48.2 °F 43% 30.19 in 10.0 mi SSW 6.9 mph - N/A   Light Drizzle
1:55 PM 71.6 °F 48.2 °F 43% 30.18 in 10.0 mi SSW 6.9 mph - N/A   Light Drizzle
2:15 PM 71.6 °F 48.2 °F 43% 30.18 in 10.0 mi SSW 5.8 mph - N/A   Light Drizzle
2:35 PM 71.6 °F 46.4 °F 41% 30.17 in 10.0 mi SSW 4.6 mph - N/A   Light Drizzle
2:55 PM 71.6 °F 48.2 °F 43% 30.17 in 10.0 mi SSW 8.1 mph - N/A   Light Drizzle
3:15 PM 71.6 °F 48.2 °F 43% 30.16 in 10.0 mi SSW 4.6 mph - N/A   Light Drizzle
3:35 PM 71.6 °F 46.4 °F 41% 30.16 in 10.0 mi South 3.5 mph - N/A Rain Light Rain
3:55 PM 71.6 °F 46.4 °F 41% 30.16 in 10.0 mi South 3.5 mph - N/A   Overcast
4:15 PM 71.6 °F 46.4 °F 41% 30.16 in 10.0 mi SSE 4.6 mph - N/A Rain Light Rain
4:35 PM 69.8 °F 46.4 °F 43% 30.16 in 10.0 mi SE 4.6 mph - N/A   Light Drizzle
4:55 PM 66.2 °F 46.4 °F 49% 30.16 in 10.0 mi SE 3.5 mph - N/A   Light Drizzle
5:15 PM 64.4 °F 48.2 °F 56% 30.16 in 10.0 mi Calm Calm - N/A Rain Light Rain
5:35 PM 62.6 °F 48.2 °F 59% 30.17 in 10.0 mi Calm Calm - N/A Rain Light Rain
5:55 PM 60.8 °F 50.0 °F 68% 30.17 in 10.0 mi Calm Calm - N/A   Light Drizzle
6:15 PM 62.6 °F 48.2 °F 59% 30.18 in 10.0 mi Calm Calm - N/A   Light Drizzle
6:35 PM 62.6 °F 48.2 °F 59% 30.18 in 10.0 mi Calm Calm - N/A   Light Drizzle
6:55 PM 60.8 °F 50.0 °F 68% 30.18 in 10.0 mi Calm Calm - N/A   Light Drizzle
7:15 PM 60.8 °F 50.0 °F 68% 30.19 in 10.0 mi Calm Calm - N/A   Light Drizzle
7:35 PM 60.8 °F 51.8 °F 72% 30.19 in 10.0 mi Calm Calm - N/A   Light Drizzle
7:55 PM 60.8 °F 51.8 °F 72% 30.19 in 10.0 mi Calm Calm - N/A   Light Drizzle
8:15 PM 60.8 °F 50.0 °F 68% 30.20 in 10.0 mi Calm Calm - N/A Rain Light Rain
8:35 PM 59.0 °F 50.0 °F 72% 30.20 in 10.0 mi Calm Calm - N/A   Clear
9:35 PM 62.6 °F 46.4 °F 55% 30.19 in 10.0 mi SE 4.6 mph - N/A Rain Light Rain
9:55 PM 62.6 °F 46.4 °F 55% 30.19 in 10.0 mi SE 3.5 mph - N/A   Light Drizzle
10:15 PM 62.6 °F 44.6 °F 52% 30.18 in 10.0 mi SSE 6.9 mph - N/A Rain Light Rain
10:35 PM 62.6 °F 44.6 °F 52% 30.17 in 10.0 mi SSE 5.8 mph - N/A Rain Light Rain
10:55 PM 62.6 °F 44.6 °F 52% 30.17 in 10.0 mi SSE 8.1 mph - N/A Rain Light Rain
11:15 PM 62.6 °F 44.6 °F 52% 30.17 in 10.0 mi SSE 6.9 mph - N/A Rain Light Rain
11:35 PM 62.6 °F 44.6 °F 52% 30.17 in 10.0 mi SE 5.8 mph - N/A Rain Light Rain
11:55 PM 60.8 °F 44.6 °F 55% 30.17 in 10.0 mi ESE 3.5 mph - N/A   Light Drizzle